Time,TemperatureF,DewpointF,PressureIn,WindDirection,WindDirectionDegrees,WindSpeedMPH,WindSpeedGustMPH,Humidity,HourlyPrecipIn,Conditions,Clouds,dailyrainin,SoftwareType,DateUTC
2013-06-08 00:02:00,58.0,51.0,-100.00,SSE,165,2.0,3.0,79,0.00,,,-99.99,,2013-06-08 05:02:00,
2013-06-08 00:12:00,57.0,51.0,-100.00,South,170,3.0,3.0,79,0.00,,,-99.99,,2013-06-08 05:12:00,
2013-06-08 00:22:00,57.0,50.0,-100.00,SSE,160,3.0,3.0,79,0.00,,,-99.99,,2013-06-08 05:22:00,
2013-06-08 00:32:00,56.0,50.0,-100.00,SSE,165,3.0,4.0,80,0.00,,,-99.99,,2013-06-08 05:32:00,
2013-06-08 00:42:00,56.0,50.0,-100.00,SSE,165,3.0,4.0,80,0.00,,,-99.99,,2013-06-08 05:42:00,
2013-06-08 00:52:00,55.0,50.0,-100.00,ESE,120,2.0,3.0,82,0.00,,,-99.99,,2013-06-08 05:52:00,
2013-06-08 01:02:00,55.0,50.0,-100.00,ESE,120,2.0,3.0,82,0.00,,,-99.99,,2013-06-08 06:02:00,
2013-06-08 01:12:00,55.0,50.0,-100.00,ESE,110,2.0,4.0,84,0.00,,,-99.99,,2013-06-08 06:12:00,
2013-06-08 01:22:00,54.0,50.0,-100.00,ESE,120,2.0,6.0,84,0.00,,,-99.99,,2013-06-08 06:22:00,
2013-06-08 01:32:00,54.0,50.0,-100.00,ESE,120,2.0,6.0,86,0.00,,,-99.99,,2013-06-08 06:32:00,
2013-06-08 01:42:00,54.0,50.0,-100.00,ESE,120,2.0,6.0,86,0.00,,,-99.99,,2013-06-08 06:42:00,
2013-06-08 01:52:00,53.0,50.0,-100.00,SE,130,2.0,6.0,87,0.00,,,-99.99,,2013-06-08 06:52:00,
2013-06-08 02:02:00,53.0,50.0,-100.00,SE,130,2.0,6.0,87,0.00,,,-99.99,,2013-06-08 07:02:00,
2013-06-08 02:12:00,53.0,49.0,-100.00,SE,125,2.0,5.0,87,0.00,,,-99.99,,2013-06-08 07:12:00,
2013-06-08 02:22:00,53.0,49.0,-100.00,SE,140,2.0,4.0,88,0.00,,,-99.99,,2013-06-08 07:22:00,
2013-06-08 02:32:00,53.0,49.0,-100.00,SE,135,2.0,4.0,88,0.00,,,-99.99,,2013-06-08 07:32:00,
2013-06-08 02:42:00,52.0,49.0,-100.00,SE,130,3.0,6.0,88,0.00,,,-99.99,,2013-06-08 07:42:00,
2013-06-08 02:52:00,52.0,49.0,-100.00,SE,135,2.0,4.0,88,0.00,,,-99.99,,2013-06-08 07:52:00,
2013-06-08 03:02:00,52.0,49.0,-100.00,SSE,155,2.0,4.0,88,0.00,,,-99.99,,2013-06-08 08:02:00,
2013-06-08 03:12:00,52.0,49.0,-100.00,SSE,155,2.0,4.0,89,0.00,,,-99.99,,2013-06-08 08:12:00,
2013-06-08 03:22:00,52.0,49.0,-100.00,SE,145,2.0,4.0,89,0.00,,,-99.99,,2013-06-08 08:22:00,
2013-06-08 03:32:00,52.0,49.0,-100.00,SSE,150,2.0,4.0,89,0.00,,,-99.99,,2013-06-08 08:32:00,
2013-06-08 03:42:00,52.0,49.0,-100.00,South,175,2.0,4.0,89,0.00,,,-99.99,,2013-06-08 08:42:00,
2013-06-08 03:52:00,52.0,49.0,-100.00,South,175,2.0,3.0,90,0.00,,,-99.99,,2013-06-08 08:52:00,
2013-06-08 04:02:00,52.0,49.0,-100.00,SSE,150,2.0,4.0,90,0.00,,,-99.99,,2013-06-08 09:02:00,
2013-06-08 04:12:00,52.0,49.0,-100.00,SE,140,2.0,3.0,90,0.00,,,-99.99,,2013-06-08 09:12:00,
2013-06-08 04:22:00,52.0,49.0,-100.00,SSE,150,2.0,4.0,90,0.00,,,-99.99,,2013-06-08 09:22:00,
2013-06-08 04:33:00,52.0,49.0,-100.00,SE,130,2.0,4.0,90,0.00,,,-99.99,,2013-06-08 09:33:00,
2013-06-08 04:52:00,52.0,49.0,-100.00,SE,135,2.0,5.0,90,0.00,,,-99.99,,2013-06-08 09:52:00,
2013-06-08 05:03:00,52.0,49.0,-100.00,SE,130,2.0,4.0,90,0.00,,,-99.99,,2013-06-08 10:03:00,
2013-06-08 05:12:00,52.0,49.0,-100.00,SE,125,3.0,4.0,90,0.00,,,-99.99,,2013-06-08 10:12:00,
2013-06-08 05:22:00,52.0,49.0,-100.00,ESE,120,2.0,3.0,90,0.00,,,-99.99,,2013-06-08 10:22:00,
2013-06-08 05:33:00,52.0,49.0,-100.00,SE,145,3.0,5.0,90,0.00,,,-99.99,,2013-06-08 10:33:00,
2013-06-08 05:43:00,51.0,49.0,-100.00,SSE,150,2.0,6.0,90,0.00,,,-99.99,,2013-06-08 10:43:00,
2013-06-08 05:52:00,51.0,49.0,-100.00,ESE,120,3.0,6.0,90,0.00,,,-99.99,,2013-06-08 10:52:00,
2013-06-08 06:02:00,52.0,49.0,-100.00,ESE,120,2.0,7.0,90,0.00,,,-99.99,,2013-06-08 11:02:00,
2013-06-08 06:12:00,51.0,49.0,-100.00,SE,125,3.0,7.0,90,0.00,,,-99.99,,2013-06-08 11:12:00,
2013-06-08 06:22:00,51.0,49.0,-100.00,SE,125,3.0,7.0,90,0.00,,,-99.99,,2013-06-08 11:22:00,
2013-06-08 06:32:00,53.0,50.0,-100.00,SE,135,3.0,6.0,90,0.00,,,-99.99,,2013-06-08 11:32:00,
2013-06-08 06:42:00,53.0,50.0,-100.00,SE,135,3.0,6.0,90,0.00,,,-99.99,,2013-06-08 11:42:00,
2013-06-08 06:52:00,53.0,51.0,-100.00,SSE,160,3.0,6.0,90,0.00,,,-99.99,,2013-06-08 11:52:00,
2013-06-08 07:02:00,54.0,52.0,-100.00,SSE,150,2.0,4.0,90,0.00,,,-99.99,,2013-06-08 12:02:00,
2013-06-08 07:12:00,55.0,52.0,-100.00,SE,145,3.0,6.0,90,0.00,,,-99.99,,2013-06-08 12:12:00,
2013-06-08 07:22:00,55.0,53.0,-100.00,SE,130,3.0,6.0,90,0.00,,,-99.99,,2013-06-08 12:22:00,
2013-06-08 07:32:00,56.0,53.0,-100.00,SE,140,3.0,7.0,90,0.00,,,-99.99,,2013-06-08 12:32:00,
2013-06-08 07:42:00,56.0,54.0,-100.00,ESE,120,3.0,7.0,90,0.00,,,-99.99,,2013-06-08 12:42:00,
2013-06-08 07:52:00,57.0,55.0,-100.00,SE,145,4.0,6.0,90,0.00,,,-99.99,,2013-06-08 12:52:00,
2013-06-08 08:02:00,57.0,55.0,-100.00,SE,145,4.0,6.0,90,0.00,,,-99.99,,2013-06-08 13:02:00,
2013-06-08 08:12:00,59.0,56.0,-100.00,SE,145,4.0,7.0,90,0.00,,,-99.99,,2013-06-08 13:12:00,
2013-06-08 08:22:00,60.0,57.0,-100.00,SE,130,3.0,8.0,90,0.00,,,-99.99,,2013-06-08 13:22:00,
2013-06-08 08:32:00,61.0,58.0,-100.00,South,175,6.0,10.0,90,0.00,,,-99.99,,2013-06-08 13:32:00,
2013-06-08 08:42:00,61.0,58.0,-100.00,South,170,4.0,10.0,88,0.00,,,-99.99,,2013-06-08 13:42:00,
2013-06-08 08:52:00,62.0,56.0,-100.00,SSE,150,7.0,11.0,80,0.00,,,-99.99,,2013-06-08 13:52:00,
2013-06-08 09:02:00,62.0,54.0,-100.00,South,185,7.0,12.0,75,0.00,,,-99.99,,2013-06-08 14:02:00,
2013-06-08 09:12:00,63.0,54.0,-100.00,South,185,4.0,12.0,73,0.00,,,-99.99,,2013-06-08 14:12:00,
2013-06-08 09:22:00,64.0,54.0,-100.00,South,170,6.0,14.0,69,0.00,,,-99.99,,2013-06-08 14:22:00,
2013-06-08 09:32:00,66.0,54.0,-100.00,South,185,4.0,11.0,64,0.00,,,-99.99,,2013-06-08 14:32:00,
2013-06-08 09:42:00,66.0,54.0,-100.00,South,185,4.0,11.0,64,0.00,,,-99.99,,2013-06-08 14:42:00,
2013-06-08 09:52:00,67.0,53.0,-100.00,South,180,6.0,12.0,61,0.00,,,-99.99,,2013-06-08 14:52:00,
2013-06-08 10:02:00,67.0,52.0,-100.00,South,185,5.0,9.0,58,0.00,,,-99.99,,2013-06-08 15:02:00,
2013-06-08 10:12:00,69.0,52.0,-100.00,SSW,205,6.0,11.0,54,0.00,,,-99.99,,2013-06-08 15:12:00,
2013-06-08 10:22:00,69.0,52.0,-100.00,South,180,6.0,12.0,53,0.00,,,-99.99,,2013-06-08 15:22:00,
2013-06-08 10:32:00,71.0,52.0,-100.00,SSW,200,6.0,13.0,52,0.00,,,-99.99,,2013-06-08 15:32:00,
2013-06-08 10:42:00,71.0,52.0,-100.00,SSW,200,6.0,13.0,52,0.00,,,-99.99,,2013-06-08 15:42:00,
2013-06-08 10:53:00,71.0,52.0,-100.00,South,180,4.0,12.0,51,0.00,,,-99.99,,2013-06-08 15:53:00,
2013-06-08 11:03:00,71.0,54.0,-100.00,SSE,160,4.0,11.0,54,0.00,,,-99.99,,2013-06-08 16:03:00,
2013-06-08 11:12:00,71.0,53.0,-100.00,SSW,200,4.0,10.0,51,0.00,,,-99.99,,2013-06-08 16:12:00,
2013-06-08 11:23:00,71.0,53.0,-100.00,SSW,200,4.0,10.0,51,0.00,,,-99.99,,2013-06-08 16:23:00,
2013-06-08 11:33:00,73.0,51.0,-100.00,SW,215,9.0,14.0,46,0.00,,,-99.99,,2013-06-08 16:33:00,
2013-06-08 11:42:00,71.0,51.0,-100.00,SSW,195,6.0,12.0,49,0.00,,,-99.99,,2013-06-08 16:42:00,
2013-06-08 11:53:00,72.0,51.0,-100.00,SSW,200,7.0,14.0,48,0.00,,,-99.99,,2013-06-08 16:53:00,
2013-06-08 12:02:00,73.0,52.0,-100.00,South,190,4.0,14.0,47,0.00,,,-99.99,,2013-06-08 17:02:00,
2013-06-08 12:12:00,72.0,51.0,-100.00,SW,215,4.0,13.0,46,0.00,,,-99.99,,2013-06-08 17:12:00,
2013-06-08 12:22:00,72.0,51.0,-100.00,SW,215,4.0,13.0,46,0.00,,,-99.99,,2013-06-08 17:22:00,
2013-06-08 12:32:00,74.0,51.0,-100.00,South,180,7.0,13.0,43,0.00,,,-99.99,,2013-06-08 17:32:00,
2013-06-08 12:42:00,74.0,51.0,-100.00,South,180,7.0,13.0,43,0.00,,,-99.99,,2013-06-08 17:42:00,
2013-06-08 12:52:00,75.0,52.0,-100.00,SSE,150,6.0,12.0,43,0.00,,,-99.99,,2013-06-08 17:52:00,
2013-06-08 13:02:00,77.0,53.0,-100.00,South,190,4.0,11.0,43,0.00,,,-99.99,,2013-06-08 18:02:00,
2013-06-08 13:12:00,74.0,52.0,-100.00,SSW,195,5.0,11.0,45,0.00,,,-99.99,,2013-06-08 18:12:00,
2013-06-08 13:22:00,74.0,52.0,-100.00,SSW,195,5.0,11.0,45,0.00,,,-99.99,,2013-06-08 18:22:00,
2013-06-08 13:32:00,75.0,51.0,-100.00,SSE,160,6.0,14.0,43,0.00,,,-99.99,,2013-06-08 18:32:00,
2013-06-08 13:42:00,75.0,51.0,-100.00,SSE,165,7.0,12.0,42,0.00,,,-99.99,,2013-06-08 18:42:00,
2013-06-08 13:52:00,77.0,53.0,-100.00,SE,140,7.0,14.0,42,0.00,,,-99.99,,2013-06-08 18:52:00,
2013-06-08 14:03:00,77.0,53.0,-100.00,SE,140,7.0,14.0,42,0.00,,,-99.99,,2013-06-08 19:03:00,
2013-06-08 14:12:00,78.0,51.0,-100.00,SSE,165,6.0,13.0,39,0.00,,,-99.99,,2013-06-08 19:12:00,
2013-06-08 14:22:00,78.0,51.0,-100.00,South,185,6.0,13.0,39,0.00,,,-99.99,,2013-06-08 19:22:00,
2013-06-08 14:32:00,77.0,50.0,-100.00,SE,145,6.0,11.0,39,0.00,,,-99.99,,2013-06-08 19:32:00,
2013-06-08 14:42:00,76.0,50.0,-100.00,SSE,150,9.0,14.0,40,0.00,,,-99.99,,2013-06-08 19:42:00,
2013-06-08 14:52:00,75.0,51.0,-100.00,SSE,150,7.0,15.0,41,0.00,,,-99.99,,2013-06-08 19:52:00,
2013-06-08 15:02:00,75.0,51.0,-100.00,SSE,150,7.0,15.0,41,0.00,,,-99.99,,2013-06-08 20:02:00,
2013-06-08 15:12:00,74.0,50.0,-100.00,SSE,155,7.0,17.0,43,0.00,,,-99.99,,2013-06-08 20:12:00,
2013-06-08 15:22:00,72.0,50.0,-100.00,SE,130,7.0,14.0,45,0.00,,,-99.99,,2013-06-08 20:22:00,
2013-06-08 15:32:00,72.0,51.0,-100.00,SE,135,6.0,14.0,45,0.00,,,-99.99,,2013-06-08 20:32:00,
2013-06-08 15:42:00,73.0,51.0,-100.00,SE,135,9.0,16.0,45,0.00,,,-99.99,,2013-06-08 20:42:00,
2013-06-08 15:52:00,74.0,51.0,-100.00,SE,140,7.0,16.0,45,0.00,,,-99.99,,2013-06-08 20:52:00,
2013-06-08 16:02:00,74.0,51.0,-100.00,SE,140,7.0,16.0,45,0.00,,,-99.99,,2013-06-08 21:02:00,
2013-06-08 16:12:00,73.0,51.0,-100.00,ESE,110,4.0,14.0,46,0.00,,,-99.99,,2013-06-08 21:12:00,
2013-06-08 16:22:00,71.0,51.0,-100.00,SSE,160,6.0,12.0,47,0.00,,,-99.99,,2013-06-08 21:22:00,
2013-06-08 16:33:00,72.0,51.0,-100.00,SE,145,7.0,12.0,48,0.00,,,-99.99,,2013-06-08 21:33:00,
2013-06-08 16:43:00,72.0,52.0,-100.00,ESE,120,4.0,12.0,48,0.00,,,-99.99,,2013-06-08 21:43:00,
2013-06-08 16:52:00,73.0,53.0,-100.00,ESE,115,4.0,11.0,49,0.00,,,-99.99,,2013-06-08 21:52:00,
2013-06-08 17:02:00,73.0,53.0,-100.00,SE,125,6.0,10.0,48,0.00,,,-99.99,,2013-06-08 22:02:00,
2013-06-08 17:12:00,73.0,53.0,-100.00,SE,125,6.0,10.0,48,0.00,,,-99.99,,2013-06-08 22:12:00,
2013-06-08 17:22:00,73.0,52.0,-100.00,SE,135,5.0,11.0,48,0.00,,,-99.99,,2013-06-08 22:22:00,
2013-06-08 17:33:00,72.0,52.0,-100.00,SE,125,7.0,12.0,48,0.00,,,-99.99,,2013-06-08 22:33:00,
2013-06-08 17:42:00,73.0,53.0,-100.00,SE,145,6.0,12.0,48,0.00,,,-99.99,,2013-06-08 22:42:00,
2013-06-08 17:52:00,74.0,53.0,-100.00,SSE,150,4.0,11.0,47,0.00,,,-99.99,,2013-06-08 22:52:00,
2013-06-08 18:02:00,74.0,53.0,-100.00,SSE,150,4.0,11.0,47,0.00,,,-99.99,,2013-06-08 23:02:00,
2013-06-08 18:12:00,74.0,52.0,-100.00,SE,135,9.0,16.0,45,0.00,,,-99.99,,2013-06-08 23:12:00,
2013-06-08 18:22:00,75.0,53.0,-100.00,ESE,115,7.0,16.0,44,0.00,,,-99.99,,2013-06-08 23:22:00,
2013-06-08 18:32:00,72.0,51.0,-100.00,SE,130,8.0,17.0,46,0.00,,,-99.99,,2013-06-08 23:32:00,
2013-06-08 18:42:00,72.0,51.0,-100.00,SE,145,8.0,14.0,47,0.00,,,-99.99,,2013-06-08 23:42:00,
2013-06-08 18:52:00,73.0,52.0,-100.00,SE,125,6.0,11.0,47,0.00,,,-99.99,,2013-06-08 23:52:00,
2013-06-08 19:02:00,73.0,52.0,-100.00,SE,125,6.0,11.0,47,0.00,,,-99.99,,2013-06-09 00:02:00,
2013-06-08 19:12:00,72.0,51.0,-100.00,SE,125,6.0,12.0,47,0.00,,,-99.99,,2013-06-09 00:12:00,
2013-06-08 19:22:00,71.0,51.0,-100.00,SE,130,6.0,12.0,49,0.00,,,-99.99,,2013-06-09 00:22:00,
2013-06-08 19:32:00,71.0,51.0,-100.00,SE,135,6.0,9.0,50,0.00,,,-99.99,,2013-06-09 00:32:00,
2013-06-08 19:42:00,71.0,51.0,-100.00,SE,135,6.0,9.0,50,0.00,,,-99.99,,2013-06-09 00:42:00,
2013-06-08 19:52:00,70.0,51.0,-100.00,SE,135,6.0,12.0,50,0.00,,,-99.99,,2013-06-09 00:52:00,
2013-06-08 20:02:00,70.0,51.0,-100.00,SE,135,6.0,11.0,50,0.00,,,-99.99,,2013-06-09 01:02:00,
2013-06-08 20:12:00,70.0,51.0,-100.00,SE,125,6.0,10.0,51,0.00,,,-99.99,,2013-06-09 01:12:00,
2013-06-08 20:22:00,69.0,51.0,-100.00,SE,130,6.0,12.0,52,0.00,,,-99.99,,2013-06-09 01:22:00,
2013-06-08 20:32:00,69.0,51.0,-100.00,ESE,105,5.0,12.0,53,0.00,,,-99.99,,2013-06-09 01:32:00,
2013-06-08 20:42:00,69.0,51.0,-100.00,ESE,105,5.0,12.0,53,0.00,,,-99.99,,2013-06-09 01:42:00,
2013-06-08 20:52:00,68.0,51.0,-100.00,ESE,120,6.0,10.0,54,0.00,,,-99.99,,2013-06-09 01:52:00,
2013-06-08 21:02:00,68.0,51.0,-100.00,ESE,120,6.0,11.0,54,0.00,,,-99.99,,2013-06-09 02:02:00,
2013-06-08 21:12:00,68.0,51.0,-100.00,ESE,120,7.0,14.0,54,0.00,,,-99.99,,2013-06-09 02:12:00,
2013-06-08 21:22:00,68.0,51.0,-100.00,ESE,120,7.0,14.0,54,0.00,,,-99.99,,2013-06-09 02:22:00,
2013-06-08 21:32:00,69.0,51.0,-100.00,SE,130,8.0,14.0,53,0.00,,,-99.99,,2013-06-09 02:32:00,
2013-06-08 21:42:00,69.0,51.0,-100.00,SE,130,8.0,14.0,53,0.00,,,-99.99,,2013-06-09 02:42:00,
2013-06-08 21:52:00,69.0,51.0,-100.00,ESE,115,10.0,17.0,53,0.00,,,-99.99,,2013-06-09 02:52:00,
2013-06-08 22:02:00,69.0,51.0,-100.00,SE,145,11.0,19.0,53,0.00,,,-99.99,,2013-06-09 03:02:00,
2013-06-08 22:12:00,69.0,51.0,-100.00,SE,145,11.0,19.0,53,0.00,,,-99.99,,2013-06-09 03:12:00,
2013-06-08 22:22:00,69.0,51.0,-100.00,SE,130,11.0,22.0,52,0.00,,,-99.99,,2013-06-09 03:22:00,
2013-06-08 22:33:00,69.0,50.0,-100.00,SE,145,12.0,21.0,51,0.00,,,-99.99,,2013-06-09 03:33:00,
2013-06-08 22:43:00,69.0,50.0,-100.00,SE,145,11.0,21.0,50,0.00,,,-99.99,,2013-06-09 03:43:00,
2013-06-08 22:53:00,69.0,50.0,-100.00,SE,135,12.0,21.0,50,0.08,,,-99.99,,2013-06-09 03:53:00,
2013-06-08 23:02:00,69.0,50.0,-100.00,SE,135,12.0,21.0,50,0.08,,,-99.99,,2013-06-09 04:02:00,
2013-06-08 23:12:00,66.0,54.0,-100.00,West,275,9.0,15.0,63,0.13,,,-99.99,,2013-06-09 04:12:00,
2013-06-08 23:22:00,66.0,54.0,-100.00,West,275,9.0,15.0,63,0.13,,,-99.99,,2013-06-09 04:22:00,
2013-06-08 23:33:00,64.0,57.0,-100.00,West,275,10.0,19.0,79,0.44,,,-99.99,,2013-06-09 04:33:00,
2013-06-08 23:43:00,63.0,58.0,-100.00,West,260,4.0,14.0,83,0.11,,,-99.99,,2013-06-09 04:43:00,
2013-06-08 23:52:00,63.0,58.0,-100.00,South,180,5.0,7.0,86,0.07,,,-99.99,,2013-06-09 04:52:00,